Weather Roundup
Issued by NWS Chicago, IL

Home | Current Version | Previous Version | Graphics & Text | Print | Product List | Glossary On
Versions: 1 2 3 4 5 6 7 8 9 10 11 12 13 14 15 16 17 18 19 20 21 22 23 24 25 26 27 28 29 30 31 32 33 34 35 36 37 38 39 40 41 42 43 44 45 46 47 48 49 50
000
NZUS59 KLOT 020601
HRRLOT

CHICAGO AREA WEATHER ROUNDUP
NATIONAL WEATHER SERVICE CHICAGO/ROMEOVILLE IL
100 AM CDT SUN AUG 02 2015

NOTE: "FAIR" INDICATES FEW OR NO CLOUDS BELOW 12,000 FEET WITH NO
SIGNIFICANT WEATHER AND/OR OBSTRUCTIONS TO VISIBILITY.

* THESE STATIONS ARE NOT UNDER NWS QUALITY CONTROL. THEY ALSO MAY NOT
  REPORT WEATHER SUCH AS PRECIPITATION OR FOG.

ILZ005-006-012>014-019>023-020700-
NORTHEAST ILLINOIS

CITY           SKY/WX    TMP DP  RH WIND       PRES   REMARKS
OHARE          CLEAR     74  65  73 SW8       29.89S
6HR MIN TEMP:  74; 6HR MAX TEMP:  83;

MIDWAY         CLEAR     76  64  66 SW9       29.89F
6HR MIN TEMP:  76; 6HR MAX TEMP:  85;

AURORA         CLEAR     71  64  78 SW9       29.91S
6HR MIN TEMP:  70; 6HR MAX TEMP:  80;

WAUKEGAN       CLEAR     73  65  75 SW5       29.86F
6HR MIN TEMP:  72; 6HR MAX TEMP:  82;

DUPAGE AIRPORT CLEAR     71  65  81 SW10      29.90S
6HR MIN TEMP:  71; 6HR MAX TEMP:  82;

WHEELING       CLEAR     76  64  66 SW6       29.89F
6HR MIN TEMP:  75; 6HR MAX TEMP:  84;

NORTHERLY IS     N/A     77  63  61 SW7         N/A
$$

WIZ051-052-058>065-066-070>072-020700-
SOUTHEAST WISCONSIN

CITY           SKY/WX    TMP DP  RH WIND       PRES   REMARKS
MILWAUKEE      MOCLDY    73  64  73 SW12      29.86R
6HR MIN TEMP:  69; 6HR MAX TEMP:  83;

KENOSHA*       CLEAR     69  65  86 W8        29.87S
RACINE*        CLEAR     72  65  78 SW7       29.87S
$$

INZ001>003-010>013-019-020-020700-
NORTHWEST INDIANA

CITY           SKY/WX    TMP DP  RH WIND       PRES   REMARKS
GARY*          NOT AVBL
MICHIGAN CITY* NOT AVBL
RENSSELAER*    NOT AVBL
$$

LMZ740>746-020700-
SOUTHERN LAKE MICHIGAN

STATION/POSITION TIME  SKY/WX   TEMP WIND        PRES    VSBY
                                AIR  DIR/SP/G
                 (UTC)          (F)  (DEG/KT/KT) (MB)    (MI)
HARRISON CRIB    0500            78  250/ 16/ 20   N/A
BURNHAM HARBOR   0600            77  250/  6/ 12   N/A
CALUMET HARBOR   0500            76  230/  5/ 10   N/A
BURNS HARBOR     0540            76  230/ 10/ 15 1013.2R
MICHIGAN CITY    0500            75  190/ 12/ 14   N/A
$$

ABBREVIATIONS USED IN REMARKS
   TC - TEMPERATURE IN CELSIUS
  WCI - WIND CHILL INDEX
   HX - HEAT INDEX
  VSB - VISIBILITY
$$



USA.gov is the U.S. government's official web portal to all federal, state and local government web resources and services.